Location: *
(58.4167°N, 22.5000°E)
Time: 05:54:01
(UTC+00:00)

Cosmos 2228 - Pass Details

Date: 22 September 2019
Orbit: 589 x 619 km, 82.5° (Epoch: 16 October)

Event Time Altitude Azimuth Distance (km) Brightness Sun altitude
Exits shadow 19:50:43 54° 46° (NE) 758 3.4 -24.2°
Drops below altitude 10° 19:54:20 10° 17° (NNE) 2,001 6.0 -24.5°
Sets 19:56:35 0° 15° (NNE) 2,911 7.0 -24.7°
